Aérodrome :
LOGIN :

S'inscrire | Disclaimer

   EN    FR    IT 

 










Légende :    VFR   VFR Marginal   IFR   IFR Intensif   IFR Très Intensif
Visi : 
Plafond : 
>= 8 km
>= 3000ft
5 à 8 km
1000 à 3000 ft
1500m à 5 km
500 à 1000 ft
800 à 1500m
200 à 500 ft
< 800m
< 200 ft
Symboles :   Orages  Brouillard  Fortes neiges  Fortes précipitations  Vent > 20 kt
SIGMETs :   Divers  Orages  Givrage  Turbulence  Onde Orograph.  Cendres Volcan.






- Altitude de l'aérodrome : 863 ft
- Code IATA : ZAZ


LEZG - Zaragoza Aragon

DERNIER METAR :
  • 221130Z 33009KT 260V020 9999 FEW050 24/10 Q1015

METARs EXPIRÉS :
  • 221100Z VRB06KT 9999 FEW050 23/10 Q1015
  • 221030Z 31005KT 230V360 CAVOK 22/10 Q1016
  • 221000Z 30006KT 250V020 CAVOK 22/10 Q1016
  • 220930Z 30007KT 250V340 CAVOK 21/10 Q1016
  • 220900Z 31006KT 260V360 CAVOK 21/10 Q1015

TAF TAF LEZG
Valide du 22 à 12h jusqu'au 23 à 12h UTC


221100Z 2212/2312 30010KT 9999 FEW030 TX27/2215Z TN13/2306Z
TEMPO 2216/2223 30020G30KT
PROB40
TEMPO 2222/2308 4000 SHRA FEW030TCU
PROB30
TEMPO 2304/2308 3000 TSRA FEW020CB



MET'MAP, la Météo Aéronautique d'un coup d'oeil ! - Copyright ORBIFLY Décembre 2007 - Disclaimer

ORBIFLY MET'MAP TEAM :

Programmation & Développement : Alexandra Zaïnal
Sur une idée originale de : Baudouin d'Aumeries
Assistance à la programmation : Marc-Olivier Méhu
Soutien technique & logistique : Manuel Goepfert

Contact : metmap@orbifly.com




SOURCES & CREDITS :

   NOAA